Location: Oxnard Police Department - Carriage Square
(34.2198°N, 119.1800°W)
Time: 01:11:55
(UTC+00:00)

Daily predictions for brighter satellites

Satellite Brightness Start Highest point End
(mag) Time Altitude Azimuth Time Altitude Azimuth Time Altitude Azimuth
Centaur AC-119 3.6 03:38:48 10° WSW 03:42:18 36° SSE 03:49:05 10° ESE
ISS -2.6 03:41:40 10° S 03:44:23 23° SE 03:47:06 10° ENE
SPOT 5 3.6 03:40:32 10° SE 03:45:12 40° ENE 03:50:04 10° N
Cosmos 2346 Rocket 4.5 03:42:26 10° S 03:48:36 85° E 03:54:42 10° N
CZ-4 R/B 1.3 03:50:47 10° S 03:54:26 76° WSW 03:58:06 10° NNW
Feng Yun 1-1 Rocket 4.5 03:50:52 10° SSE 03:56:40 64° ENE 04:02:22 10° N
Cosmos 1862 Rocket 3.8 03:53:44 10° SSW 03:58:03 71° W 04:02:22 10° N
Cosmos 968 Rocket 3.5 03:54:05 10° SSW 03:59:17 80° ESE 04:04:33 10° NNE
Cosmos 841 Rocket 3.6 03:54:20 10° N 03:59:29 62° ENE 04:04:33 10° SSE
CZ-2C R/B 2.8 03:57:29 10° S 04:00:43 59° W 04:03:56 10° NNW
Meteosat 1 Rocket2 4.0 03:58:38 10° WSW 04:03:00 45° S 04:08:47 12° ESE
SL-4 R/B 2.0 04:02:38 10° NW 04:06:48 77° NE 04:09:59 16° SE
Cosmos 304 Rocket 4.1 04:07:02 10° SSW 04:11:45 70° WNW 04:16:31 10° NNE
Timation 2 Rocket 3.8 04:06:14 10° SSW 04:12:11 86° ESE 04:18:13 10° NNE
GP-B 3.3 04:14:21 10° NNE 04:18:36 50° E 04:22:10 14° SSE
Helios 1B rocket 2.6 04:18:15 19° SE 04:20:32 44° ENE 04:24:04 10° N
Cosmos 332 Rocket 4.3 04:17:44 10° S 04:22:09 38° ESE 04:26:35 10° NE
CZ-4B R/B 3.2 04:18:25 10° SSE 04:23:41 83° WSW 04:29:04 10° NNW
Lacrosse 5 rocket 1.0 04:23:38 10° SSW 04:27:22 75° SE 04:31:14 10° NE
Resurs 01 Rocket 4.2 04:26:07 10° SW 04:29:00 17° W 04:31:54 10° NW
IRIDIUM 104 4.3 04:25:04 10° S 04:30:17 89° W 04:35:31 10° N
MOS 1-B 4.3 04:27:01 15° SSE 04:31:47 74° ENE 04:37:32 10° N
MOS 1 4.2 04:28:10 14° SSE 04:33:05 84° ENE 04:38:44 10° NNW
Terra 2.1 04:30:27 22° SE 04:33:17 51° ENE 04:37:51 10° N
CZ-4B R/B 3.6 04:33:06 14° S 04:37:36 82° WSW 04:42:52 10° NNW
Spot 2 Rocket 4.2 04:35:31 23° ESE 04:38:01 37° ENE 04:42:41 10° N
MetOp-B 4.1 04:33:57 16° SSE 04:38:20 90° WSW 04:43:43 10° NNW
Cosmos 1943 Rocket 2.0 04:35:26 10° SSW 04:40:55 80° ESE 04:46:28 10° NNE
Cosmos 2278 Rocket 2.1 04:35:27 10° SSW 04:41:06 88° ESE 04:46:47 10° NNE
USA 307 2.4 04:37:45 10° NW 04:41:13 85° SW 04:42:41 36° SE
USA 59 Rocket 2.9 04:39:11 10° W 04:42:06 16° WSW 04:45:32 10° SSW
Helios 1A 2.7 04:39:26 10° NNE 04:43:23 86° ESE 04:46:36 15° SSW
Cosmos 2082 Rocket 3.9 04:39:43 10° NNE 04:43:47 20° ENE 04:46:14 15° E
Okean-O 2.6 04:42:20 27° SSE 04:44:39 70° ENE 04:49:00 10° N
ATLAS 3B R/B 3.0 04:38:34 10° NNW 04:46:23 79° WSW 04:51:29 22° SSE
CZ-4B R/B 3.1 04:44:50 21° S 04:46:50 52° W 04:50:13 10° NNW
Cosmos 1703 Rocket 3.8 04:43:50 10° SSW 04:48:05 65° W 04:52:22 10° N
USA 245 4.3 04:50:25 29° SE 04:53:05 54° ENE 04:57:44 10° N
SEDSat Delta rocket 3.8 04:48:15 10° W 04:54:13 69° S 04:58:05 25° ESE
Cosmos 1814 Rocket 4.2 04:53:39 10° N 04:58:52 55° ENE 05:00:46 36° SE
Cosmos 2369 Rocket 4.3 05:01:00 10° ENE 05:01:00 10° ENE 05:01:04 10° ENE
Atlas Centaur 2 2.3 04:56:03 10° WSW 04:59:00 27° SSW 04:59:00 27° SSW
Cosmos 1782 Rocket 3.8 04:55:51 10° N 05:00:11 51° E 05:01:11 42° SE
IRS-1A Rocket 4.2 04:59:36 27° SSE 05:02:43 86° WSW 05:08:15 10° NNW
USA 229 DEB 4.2 04:55:47 10° NW 05:03:35 76° WSW 05:08:41 27° SSE
USA 229 4.2 04:55:53 10° NW 05:03:41 77° WSW 05:08:45 27° SSE
Okean O Rocket 2.4 05:02:28 21° SSW 05:05:02 46° W 05:09:13 10° NNW
Cosmos 1833 Rocket 3.1 05:00:28 10° NNW 05:05:57 57° WSW 05:09:04 25° S
SPOT 3 Rocket 4.1 05:04:44 35° ESE 05:06:12 43° ENE 05:11:06 10° N
NOSS 3-3 (C) 3.5 05:03:58 27° S 05:06:33 55° ESE 05:12:02 10° NE
BlueWalker 3 4.0 05:12:52 10° W 05:16:03 27° NW 05:19:15 10° NNE
ATLAS 5 CENTAUR R/B 4.4 05:16:41 10° WNW 05:17:31 11° NW 05:18:21 10° NNW
ERS-1 Rocket 3.8 05:14:55 22° SSW 05:17:50 44° W 05:22:36 10° NNW
ISS -1.5 05:18:06 10° W 05:21:00 27° NW 05:23:55 10° NNE
Cosmos 158 Rocket 3.8 05:22:59 10° N 05:27:48 60° ENE 05:28:20 56° ESE
Cosmos 1656 Rocket 3.9 05:30:34 47° ESE 05:30:34 47° ESE 05:35:51 10° NNE
Cosmos 1607 3.9 05:28:02 10° SSW 05:34:18 86° WNW 05:40:31 10° NNE
Cosmos 1300 Rocket 4.1 05:33:05 10° NNW 05:37:20 51° W 05:38:07 45° SW
Ariane Rocket 2.8 05:40:13 67° SSE 05:40:55 88° ENE 05:46:00 10° NNW
Cosmos 292 Rocket 3.9 05:40:13 49° SW 05:41:26 73° WNW 05:46:13 10° NNE
Cosmos 1461 3.9 05:38:06 10° NNW 05:41:24 35° NE 05:41:24 35° NE
ASTEX 1 3.2 05:37:53 10° N 05:42:46 77° E 05:42:58 76° ESE
Timation 1 Rocket 4.4 05:37:14 10° NNW 05:43:13 64° ENE 05:44:15 55° ESE
COSMOS 2406 4.0 05:38:22 10° N 05:43:38 36° ENE 05:44:22 35° E
Cosmos 2242 Rocket 3.7 05:44:05 62° WSW 05:44:29 65° W 05:48:50 10° N
GEOS 3 Rocket 3.5 05:46:18 10° NE 05:51:35 72° ESE 05:51:42 72° SE
Cosmos 1378 Rocket 3.9 05:53:31 56° NNE 05:53:31 56° NNE 05:56:59 10° N
COBE Rocket 3.7 05:48:21 10° N 05:53:01 86° NW 05:53:01 86° NW
Cosmos 1606 4.5 05:52:45 10° NNW 05:54:19 24° NW 05:54:19 24° NW
Cosmos 1486 Rocket 3.8 06:00:59 88° ESE 06:00:59 88° ESE 06:06:17 10° NNE
Nadezhda 4 Rocket 4.1 06:10:20 58° E 06:10:21 58° E 06:16:33 10° NNE
Terra 4.3 06:09:06 10° WSW 06:11:02 13° W 06:13:08 10° WNW
Cosmos 2180 Rocket 4.4 06:09:31 10° N 06:15:39 69° E 06:15:48 68° E
Meteor 2-12 Rocket 4.3 06:16:53 80° SE 06:17:11 83° E 06:23:22 10° N
Cosmos 2208 Rocket 4.3 06:13:50 10° N 06:18:26 58° NE 06:18:26 58° NE
Meteor 1-21 Rocket 4.4 06:21:18 63° WSW 06:21:50 67° W 06:27:29 10° N
Cosmos 1025 Rocket 4.4 06:25:13 34° NNE 06:25:13 34° NNE 06:27:44 10° N
Cosmos 2082 Rocket 2.6 06:22:36 10° NNW 06:28:03 52° WSW 06:28:03 52° WSW
USA 215 4.4 06:26:41 26° ENE 06:29:26 36° NE 06:35:16 10° NNW
Okean 1 Rocket 4.5 06:34:58 10° N 06:37:35 35° N 06:37:35 35° N
Cosmos 1503 Rocket 4.5 06:42:15 56° NW 06:42:15 56° NW 06:46:47 10° N
Cosmos 2369 Rocket 2.4 06:42:43 70° NW 06:42:43 70° NW 06:48:01 10° NNE
Cosmos 1428 Rocket 4.4 06:44:42 79° NNE 06:44:42 79° NNE 06:50:27 10° N
Meteor 1-11 4.4 06:46:06 71° NW 06:46:06 71° NW 06:51:37 10° N
CZ-4C R/B 4.2 06:51:46 13° NE 06:51:46 13° NE 06:52:17 10° NE
ALOS 2 4.5 07:14:40 27° NNE 07:14:40 27° NNE 07:16:50 10° N
NOSS 3-4 (A) 4.3 07:17:02 10° NNW 07:24:06 58° ENE 07:25:07 54° E
NOSS 3-4 (C) 4.3 07:17:07 10° NNW 07:24:10 57° ENE 07:25:12 53° E
Cosmos 2285 Rocket 4.2 07:27:51 67° NNW 07:27:51 67° NNW 07:33:37 10° NNE
Aureole 1 Rocket 4.4 07:33:05 55° NNE 07:33:05 55° NNE 07:38:17 10° NNE
USA 215 3.9 08:14:00 45° WNW 08:14:00 45° WNW 08:18:37 10° NW
Cosmos 2266 Rocket 4.2 08:19:43 67° N 08:19:43 67° N 08:25:12 10° N
CZ-4C R/B 3.9 08:36:43 19° NW 08:36:43 19° NW 08:40:02 10° N
S3M 4.2 08:35:41 10° N 08:41:11 69° N 08:41:11 69° N
Cosmos 2297 Rocket 3.8 08:37:43 10° N 08:42:29 27° ENE 08:43:37 25° E
Cosmos 1980 Rocket 4.2 08:52:14 18° E 08:52:14 18° E 08:55:12 10° ENE
Cosmos 1680 Rocket 4.3 08:50:23 10° NNW 08:54:11 47° N 08:54:11 47° N
Resurs 1-4 Rocket 4.4 08:56:51 10° ENE 08:59:31 14° E 08:59:43 14° E
Cosmos 1656 4.5 09:00:41 44° NW 09:00:41 44° NW 09:05:12 10° N
Cosmos 1697 Rocket 3.4 09:01:22 47° ENE 09:01:22 47° ENE 09:05:47 10° NNE
Cosmos 2227 Rocket 4.3 09:09:34 10° N 09:13:57 22° ENE 09:18:03 11° ESE
MSX 4.1 09:18:05 10° NNE 09:23:31 60° E 09:23:31 60° E
Cosmos 1125 Rocket 4.0 09:27:11 53° ENE 09:27:11 53° ENE 09:31:39 10° NNE
DELTA 2 R/B (1) 4.0 09:30:47 56° NNW 09:31:10 57° NNW 09:36:40 10° ENE
Cosmos 2058 Rocket 4.2 09:28:12 10° N 09:31:06 40° N 09:31:06 40° N
NPP 3.8 09:28:35 10° NNE 09:33:38 65° E 09:33:38 65° E
CZ-2C R/B 3.5 09:38:20 38° WNW 09:38:20 38° WNW 09:42:13 10° NNW
Meteor 2-3 Rocket 4.3 09:41:30 48° WNW 09:41:30 48° WNW 09:46:41 10° N
Cosmos 1048 Rocket 4.1 09:41:48 10° NNW 09:47:09 70° ENE 09:47:22 69° E
Tiangong 0.7 09:52:30 19° NE 09:52:30 19° NE 09:53:41 10° NE
IDEFIX/ARIANE 42P 2.7 09:50:57 10° N 09:55:44 60° NW 09:55:44 60° NW
MOZ.5/SAFIR/RUBIN 5/SL-8 3.7 10:08:46 78° NNW 10:08:46 78° NNW 10:13:05 10° NNW
Cosmos 1758 Rocket 4.2 10:10:33 47° NW 10:10:33 47° NW 10:13:59 10° N
Cosmos 1602 Rocket 3.7 10:10:16 66° N 10:10:16 66° N 10:13:59 10° N
SL-16 R/B 4.3 10:07:58 12° SE 10:10:49 18° E 10:14:27 10° ENE
Envisat 4.1 10:07:35 10° NNE 10:12:13 36° E 10:13:47 29° SE
ADEOS II 2.8 10:07:55 10° NNE 10:12:58 46° E 10:14:18 38° SE
OAO 2 Rocket 3.4 10:16:23 61° SE 10:16:23 61° SE 10:20:53 10° E
Meteor 1-26 Rocket 4.1 10:10:53 10° NNW 10:16:08 60° W 10:16:08 60° W
CZ-3 R/B 4.3 09:21:29 10° WSW 10:17:29 70° S 10:30:37 10° E
Cosmos 2263 Rocket 3.5 10:14:01 10° N 10:19:16 38° ENE 10:24:26 10° SE
CZ-2D R/B 1.9 10:21:12 10° NNE 10:26:27 87° W 10:27:25 61° SSW
Cosmos 2297 Rocket 3.1 10:21:25 10° NW 10:25:21 32° W 10:25:21 32° W
Okean 1 3.5 10:23:16 10° N 10:26:24 60° N 10:26:24 60° N
SL-16 R/B 4.4 10:22:44 10° ESE 10:27:52 28° ENE 10:33:02 10° N
Milstar 3 Cent rocket 4.3 10:30:41 12° SE 10:30:41 12° SE 10:31:44 10° SE
SeaSat 1 2.4 10:29:39 60° WSW 10:29:39 60° WSW 10:34:25 10° NNW
USA 234 3.6 10:24:49 10° NE 10:31:09 51° SE 10:33:36 35° S
OAO 3 Copernicus 4.2 10:31:01 59° W 10:31:59 88° NNW 10:37:03 10° E
Cosmos 1743 3.7 10:32:22 34° E 10:32:30 34° E 10:35:34 10° NNE
Cosmos 1980 Rocket 2.5 10:33:59 43° W 10:35:02 49° WNW 10:40:27 10° N
H-2A R/B 2.9 10:33:37 10° N 10:37:11 35° WNW 10:37:11 35° WNW
Resurs 1-4 Rocket 2.2 10:34:22 10° N 10:39:35 59° WNW 10:40:46 47° WSW
Meteor 2-6 Rocket 4.2 10:35:52 10° NNW 10:41:35 72° W 10:43:51 38° S
Okean 1-7 Rocket 3.9 10:41:49 49° W 10:41:53 49° W 10:46:13 10° N
Cosmos 1697 Rocket 4.4 10:43:04 17° WNW 10:44:33 18° WNW 10:48:24 10° NNW
Cosmos 614 Rocket 3.8 10:40:30 10° NNW 10:45:35 86° ENE 10:48:39 24° SSE
H-2A R/B 3.5 10:41:58 10° NE 10:46:16 29° E 10:50:00 12° SSE
AQUA 4.2 10:42:46 10° NNE 10:47:23 56° E 10:49:28 30° SSE
Cosmos 2150 Rocket 4.2 10:46:26 45° SW 10:47:52 60° WNW 10:53:15 10° N
Hubble Space Telescope 2.1 10:53:02 24° SE 10:53:02 24° SE 10:55:21 10° ESE
Cosmos 2151 3.4 10:52:31 40° W 10:52:35 41° W 10:56:31 10° N
Cosmos 2221 2.4 10:49:29 10° NNW 10:53:41 61° W 10:54:18 54° SW
Cosmos 2227 Rocket 2.5 10:52:47 10° NW 10:58:08 44° WSW 10:59:44 35° SW
ALOS 2.3 10:53:50 10° N 10:58:19 58° WNW 10:59:32 43° SW
Nadezhda 1 Rocket 4.5 10:54:21 10° NNW 11:00:04 39° W 11:01:56 32° SW
Cosmos 2278 4.3 10:58:09 21° S 11:01:40 52° ESE 11:07:07 10° NNE
CZ-2C R/B 4.4 10:58:04 10° NE 11:02:10 25° E 11:06:18 10° SSE
Cosmos 1733 3.5 11:02:58 33° SE 11:03:45 43° E 11:06:38 10° NNE
Cosmos 1953 Rocket 3.4 11:02:08 38° SSW 11:03:47 84° W 11:08:10 10° N
Cosmos 2181 Rocket 4.4 10:59:15 10° N 11:05:21 63° E 11:11:23 10° SSE
Cosmos 2360 Rocket 3.7 11:08:40 10° SSE 11:13:29 30° ESE 11:18:18 10° NE
DELTA 2 R/B (1) 4.4 11:12:40 10° WNW 11:18:06 50° N 11:23:32 10° E
CENTAUR R/B 2.7 11:20:13 18° S 11:23:54 52° ESE 11:29:51 10° NE
Tiangong 0.3 11:25:29 10° NW 11:28:07 22° N 11:30:45 10° NE
Cosmos 2322 Rocket 2.9 11:24:01 11° S 11:29:16 52° ESE 11:34:44 10° NNE
KORONAS-FOTON 4.3 11:25:51 10° N 11:29:19 54° E 11:32:46 10° SSE
Cosmos 921 Rocket 3.0 11:25:44 10° NNW 11:30:06 61° WSW 11:34:21 10° S
Cosmos 1238 Rocket 4.4 11:27:41 10° NNW 11:32:13 30° W 11:34:27 21° SW
Cosmos 2219 Rocket 4.1 11:29:44 10° SSE 11:34:11 25° ESE 11:38:38 10° NE
Cosmos 2333 Rocket 2.6 11:30:12 12° S 11:35:28 63° ESE 11:41:07 10° NNE
Cosmos 1076 Rocket 4.4 11:37:27 22° WSW 11:39:22 31° W 11:43:12 10° NNW
ATLAS 2AS CENTAUR R/B 2.7 11:33:07 10° NNW 11:39:52 86° ENE 11:46:35 10° SSE
Intelsat 5-2 Rocket 4.3 11:43:48 11° S 11:43:48 11° S 11:44:26 10° SSE
Meteor 2-4 Rocket 3.8 11:39:22 10° N 11:44:45 73° E 11:50:03 10° SSE
Meteor 1-5 Rocket 4.4 11:39:38 13° SSW 11:44:51 63° W 11:50:35 10° N
H-2A R/B 3.2 11:41:14 10° N 11:45:07 69° WNW 11:48:20 14° SSW
Cosmos 1346 Rocket 4.3 11:46:29 15° W 11:47:33 17° WNW 11:50:02 10° NNW
Cosmos 2082 3.8 11:42:52 10° NNW 11:48:24 56° WSW 11:53:52 10° S
Nadezhda 3 Rocket 4.3 11:44:38 10° N 11:50:53 73° E 11:57:02 10° SSE
Envisat 4.4 11:47:04 10° NNW 11:50:53 22° WNW 11:53:55 13° WSW
ADEOS II 3.7 11:48:36 10° NNW 11:52:06 18° WNW 11:55:08 12° WSW
BlueWalker 3 2.8 11:48:44 10° NW 11:52:17 50° NE 11:55:48 10° ESE
ISS -3.2 11:49:14 10° NW 11:52:34 62° NE 11:55:52 10° ESE
SL-16 R/B 2.5 11:49:50 15° SW 11:54:23 51° WNW 11:59:54 10° N
Aurora 2 Rocket 3.9 11:55:40 11° SSW 11:56:57 13° SSE 11:58:32 10° SE
